Location: Newark
(55.8372°N, 37.1596°E)
Time: 16:41:43
(UTC+00:00)

N. Korean satellite - Visible Passes

Search period start: 16 October 2019 00:00
Search period end: 26 October 2019 00:00
Orbit: 455 x 508 km, 97.2° (Epoch: 15 October)

Date Brightness Start Highest point End Pass type
(mag) Time Alt. Az. Time Alt. Az. Time Alt. Az.
16 Oct 7.9 03:19:35 10° NNE 03:23:02 46° E 03:26:31 10° S visible
16 Oct 10.0 15:37:09 10° SW 15:39:22 16° W 15:41:35 10° NW visible
17 Oct 9.1 02:54:33 10° NE 02:57:37 26° E 03:00:43 10° SSE visible
17 Oct 9.0 15:10:52 10° SSW 15:13:50 27° W 15:16:52 10° NW visible
18 Oct 10.0 02:29:51 10° NE 02:32:07 16° E 02:34:23 10° SE visible
19 Oct 10.4 15:56:05 10° WSW 15:57:03 11° W 15:58:01 10° WNW visible
20 Oct 8.3 03:11:49 10° NNE 03:15:13 39° E 03:18:40 10° SSE visible
20 Oct 9.8 15:28:57 10° SW 15:31:28 19° W 15:34:01 10° NW visible
21 Oct 9.4 02:46:50 10° NE 02:49:46 23° E 02:52:42 10° SSE visible
21 Oct 8.6 15:02:50 10° SSW 15:05:58 32° W 15:09:10 10° NNW visible
22 Oct 10.2 02:22:19 10° NE 02:24:13 14° E 02:26:09 10° ESE visible
23 Oct 7.3 03:29:10 10° NNE 03:32:46 60° ESE 03:36:24 10° S visible
23 Oct 10.1 15:47:25 10° WSW 15:49:07 13° W 15:50:50 10° WNW visible
24 Oct 8.6 03:04:01 10° NNE 03:07:22 33° E 03:10:43 10° SSE visible
24 Oct 9.4 15:20:46 10° SW 15:23:33 22° W 15:26:22 10° NW visible
25 Oct 9.7 02:39:07 10° NE 02:41:52 20° E 02:44:38 10° SE visible
25 Oct 8.2 14:54:47 10° SSW 14:58:03 39° W 15:01:24 10° NNW visible
